Location: Wald
(31.7579°N, 86.6655°W)
Time: 12:25:05
(UTC+00:00)

CZ-4B R/B - Pass Details

Date: 14 July 2020
Orbit: 702 x 803 km, 98.9° (Epoch: 08 August)

Event Time Altitude Azimuth Distance (km) Brightness Sun altitude
Rises 07:23:02 0° 18° (NNE) 3,209 7.8 -32.4°
Reaches altitude 10° 07:25:25 10° 23° (NNE) 2,265 6.8 -32.2°
Enters shadow 07:28:58 42° 51° (NE) 1,045 4.5 -31.9°
